Printer-friendly version

IAU Minor Planet Center

Minor Planet Center

(107748) 2001 FQ35

Orbital Elements

The following orbital elements are taken from MPO110676
(107748) 2001 FQ35
Epoch 2007 Oct. 27.0 TT = JDT 2454400.5                 MPC
M 272.09259              (2000.0)            P               Q
n   0.25428585     Peri.  349.56218     -0.89260099     -0.45020265
a   2.4674853      Node   163.61600     +0.41955887     -0.84903711
e   0.0765705      Incl.    4.90223     +0.16502673     -0.27650237
P   3.88           H   15.9           G   0.15           U   2
From 87 observations at 3 oppositions, 2001-2005, mean residual 0".48.
An explanation of the orbital elements is available.

These orbital elements are also available in forms suitable for loading into a number of popular planetarium-type software programs.


Ephemeris

The following ephemeris is at intervals of five days. A daily ephemeris covering the same time interval is also available.

Personalized ephemerides for this (and other) objects may be generated using the Minor Planet & Comet Ephemeris Service.

Date    TT    R. A. (2000) Decl.     Delta      r     Elong.  Phase     V
2009 10 26    16 21.56   -17 43.1    3.266    2.506    34.2    12.9    21.2

2010 05 24    22 07.44   -08 14.0    2.403    2.635    91.7    22.6    21.0
2010 05 29    22 11.27   -07 52.6    2.339    2.636    95.4    22.5    20.9
2010 06 03    22 14.68   -07 33.6    2.276    2.638    99.3    22.3    20.9
2010 06 08    22 17.62   -07 17.1    2.214    2.639   103.3    22.0    20.8
2010 06 13    22 20.07   -07 03.6    2.152    2.641   107.5    21.5    20.7
2010 06 18    22 22.00   -06 53.3    2.092    2.642   111.7    20.9    20.6
2010 06 23    22 23.38   -06 46.4    2.034    2.644   116.1    20.2    20.6
2010 06 28    22 24.19   -06 43.1    1.978    2.645   120.7    19.3    20.5
2010 07 03    22 24.41   -06 43.8    1.924    2.646   125.4    18.3    20.4
2010 07 08    22 24.02   -06 48.4    1.874    2.647   130.3    17.0    20.3
2010 07 13    22 23.01   -06 57.3    1.827    2.648   135.3    15.7    20.2
2010 07 18    22 21.39   -07 10.4    1.785    2.649   140.5    14.1    20.1
2010 07 23    22 19.18   -07 27.5    1.747    2.650   145.9    12.4    20.0
2010 07 28    22 16.41   -07 48.6    1.714    2.651   151.4    10.6    19.9
2010 08 02    22 13.15   -08 13.1    1.687    2.652   157.1     8.6    19.7
2010 08 07    22 09.45   -08 40.8    1.666    2.652   162.8     6.5    19.6
2010 08 12    22 05.41   -09 11.0    1.652    2.653   168.7     4.3    19.5
2010 08 17    22 01.14   -09 42.9    1.644    2.653   174.4     2.1    19.3
2010 08 22    21 56.78   -10 15.6    1.643    2.654   177.7     0.9    19.2
2010 08 27    21 52.44   -10 48.5    1.649    2.654   172.8     2.7    19.4
2010 09 01    21 48.25   -11 20.7    1.661    2.654   167.0     4.9    19.5
2010 09 06    21 44.34   -11 51.4    1.681    2.655   161.1     7.1    19.7
2010 09 11    21 40.81   -12 20.1    1.706    2.655   155.3     9.1    19.8
2010 09 16    21 37.76   -12 46.1    1.738    2.655   149.6    11.0    19.9
2010 09 21    21 35.27   -13 08.9    1.776    2.655   144.0    12.8    20.0
2010 09 26    21 33.39   -13 28.5    1.818    2.655   138.6    14.5    20.1
2010 10 01    21 32.14   -13 44.5    1.865    2.654   133.3    15.9    20.2
2010 10 06    21 31.55   -13 57.0    1.916    2.654   128.2    17.2    20.3
2010 10 11    21 31.62   -14 05.8    1.971    2.654   123.3    18.3    20.4
2010 10 16    21 32.34   -14 11.0    2.029    2.653   118.4    19.3    20.5
2010 10 21    21 33.68   -14 12.6    2.090    2.653   113.8    20.1    20.6
2010 10 26    21 35.62   -14 10.9    2.152    2.652   109.3    20.7    20.7
2010 10 31    21 38.12   -14 05.9    2.217    2.651   104.9    21.2    20.8
2010 11 05    21 41.15   -13 57.7    2.282    2.651   100.6    21.6    20.9
2010 11 10    21 44.66   -13 46.4    2.349    2.650    96.5    21.8    20.9
2010 11 15    21 48.64   -13 32.2    2.416    2.649    92.4    21.9    21.0
2010 11 20    21 53.03   -13 15.2    2.483    2.648    88.5    21.9    21.0

Valid HTML 4.01!